Location: Biharia
(46.4333°N, 22.8000°E)
Time: 21:20:14
(UTC+00:00)

CZ-2C R/B - Pass Details

Date: 16 October 2021
Orbit: 784 x 871 km, 98.2° (Epoch: 29 November)

Event Time Altitude Azimuth Distance (km) Brightness Sun altitude
Rises 17:47:03 0° 6° (N) 3,471 6.0 -22.5°
Reaches altitude 10° 17:49:37 10° 358° (N) 2,529 5.3 -23.0°
Maximum altitude 17:54:40 36° 295° (WNW) 1,360 4.3 -23.8°
Drops below altitude 10° 17:59:40 10° 231° (SW) 2,495 5.6 -24.7°
Sets 18:02:11 0° 222° (SW) 3,418 6.2 -25.1°
